TimeEST,TemperatureF,Dew PointF,Humidity,Sea Level PressureIn,VisibilityMPH,Wind Direction,Wind SpeedMPH,Gust SpeedMPH,PrecipitationIn,Events,Conditions,WindDirDegrees,DateUTC
12:53 AM,30.0,21.0,69,29.84,10.0,SW,5.8,-,N/A,,Clear,230,2014-01-15 05:53:00
1:53 AM,27.0,21.9,81,29.84,10.0,Calm,Calm,-,N/A,,Clear,0,2014-01-15 06:53:00
2:53 AM,28.0,21.0,75,29.87,10.0,Calm,Calm,-,N/A,,Clear,0,2014-01-15 07:53:00
3:53 AM,25.0,21.0,85,29.87,10.0,Calm,Calm,-,N/A,,Clear,0,2014-01-15 08:53:00
4:53 AM,23.0,21.0,92,29.86,10.0,Calm,Calm,-,N/A,,Clear,0,2014-01-15 09:53:00
5:53 AM,21.9,19.0,89,29.86,10.0,Calm,Calm,-,N/A,,Clear,0,2014-01-15 10:53:00
6:53 AM,24.1,21.9,91,29.85,10.0,Calm,Calm,-,N/A,,Mostly Cloudy,0,2014-01-15 11:53:00
7:53 AM,25.0,21.9,88,29.86,10.0,NE,3.5,-,N/A,,Mostly Cloudy,50,2014-01-15 12:53:00
8:53 AM,28.0,24.1,85,29.89,10.0,Calm,Calm,-,N/A,,Overcast,0,2014-01-15 13:53:00
9:31 AM,28.0,25.0,88,29.87,2.5,Calm,Calm,-,0.00,Snow,Light Snow,0,2014-01-15 14:31:00
9:41 AM,28.9,26.1,89,29.87,1.5,Calm,Calm,-,0.00,Snow,Light Snow,0,2014-01-15 14:41:00
9:53 AM,30.0,26.1,85,29.89,1.5,ENE,3.5,-,0.00,Snow,Light Snow,60,2014-01-15 14:53:00
10:28 AM,30.9,28.9,92,29.86,2.0,ESE,3.5,-,0.00,Snow,Light Snow,120,2014-01-15 15:28:00
10:41 AM,32.0,28.9,88,29.86,2.5,SE,4.6,-,0.00,Snow,Light Snow,130,2014-01-15 15:41:00
10:48 AM,32.0,28.4,87,29.85,1.8,SE,4.6,-,0.00,Snow,Light Snow,140,2014-01-15 15:48:00
10:53 AM,33.1,30.0,89,29.87,1.5,SE,4.6,-,0.00,Snow,Light Snow,140,2014-01-15 15:53:00
11:04 AM,33.1,30.9,92,29.85,3.0,SSE,4.6,-,0.00,Snow,Light Snow,150,2014-01-15 16:04:00
11:26 AM,35.1,32.0,89,29.84,6.0,SSW,4.6,-,0.00,Rain,Light Rain,200,2014-01-15 16:26:00
11:53 AM,36.0,33.1,89,29.84,6.0,SSW,6.9,-,0.00,Rain,Light Rain,210,2014-01-15 16:53:00
12:53 PM,35.1,30.9,85,29.85,6.0,WSW,10.4,-,0.00,Rain,Light Rain,240,2014-01-15 17:53:00
1:12 PM,35.1,30.0,82,29.83,9.0,SW,15.0,24.2,0.00,,Overcast,220,2014-01-15 18:12:00
1:53 PM,35.1,28.9,78,29.86,8.0,SW,18.4,27.6,0.00,,Overcast,230,2014-01-15 18:53:00
2:53 PM,34.0,26.1,73,29.89,10.0,SW,17.3,23.0,N/A,,Overcast,220,2014-01-15 19:53:00
3:01 PM,34.0,26.1,73,29.87,10.0,SW,13.8,25.3,N/A,,Overcast,230,2014-01-15 20:01:00
3:53 PM,34.0,24.1,67,29.91,10.0,SW,19.6,24.2,N/A,,Overcast,220,2014-01-15 20:53:00
4:53 PM,33.1,23.0,66,29.92,10.0,SW,17.3,24.2,N/A,,Mostly Cloudy,220,2014-01-15 21:53:00
5:53 PM,32.0,21.9,66,29.93,10.0,SW,10.4,-,N/A,,Mostly Cloudy,220,2014-01-15 22:53:00
6:53 PM,30.9,21.9,69,29.95,10.0,SW,10.4,-,N/A,,Scattered Clouds,220,2014-01-15 23:53:00
7:53 PM,30.9,21.9,69,29.96,10.0,SW,6.9,-,N/A,,Overcast,220,2014-01-16 00:53:00
8:53 PM,30.9,21.0,67,29.98,10.0,SW,9.2,-,N/A,,Overcast,230,2014-01-16 01:53:00
9:53 PM,30.9,21.0,67,29.97,10.0,SW,9.2,-,N/A,,Overcast,220,2014-01-16 02:53:00
10:53 PM,30.0,21.0,69,29.97,10.0,SSW,10.4,-,N/A,,Overcast,210,2014-01-16 03:53:00
11:53 PM,30.0,21.0,69,29.96,10.0,SSW,10.4,-,N/A,,Overcast,210,2014-01-16 04:53:00